DW7512 Weather Reports


Display with metric or nautical units.
time (UTC)temp
F
wind
direction
speed
MPH
gust
MPH
rain 1hr
in
rain 24hr
in
rain mn
in
humidity
%
barometer
mb
20190218180203 23 334 7.0 10.0 0.01 0.01 0.01 80 1030.4
20190218174702 23 340 5.0 9.0 0.01 0.01 0.01 80 1030.2
20190218174202 23 337 7.0 9.0 0.01 0.01 0.01 80 1030.0
20190218173702 22 347 6.0 12.0 0.01 0.01 0.01 80 1029.9
20190218173202 22 334 6.0 10.0 0.01 0.01 0.01 80 1029.9
20190218171702 22 333 6.0 8.0 0.01 0.01 0.01 80 1029.7
20190218171202 22 335 7.0 10.0 0.00 0.00 0.00 81 1029.7
20190218170702 21 337 5.0 8.0 0.00 0.00 0.00 81 1029.6
20190218170203 21 343 6.0 10.0 0.00 0.00 0.00 81 1029.5
20190218164702 21 337 6.0 10.0 0.00 0.00 0.00 82 1029.4
20190218164202 20 337 6.0 8.0 0.00 0.00 0.00 82 1029.4
20190218163702 20 342 5.0 8.0 0.00 0.00 0.00 82 1029.3
20190218163203 20 336 6.0 9.0 0.00 0.00 0.00 82 1029.3
20190218161702 20 340 7.0 10.0 0.00 0.00 0.00 83 1028.9
20190218161202 19 339 7.0 10.0 0.00 0.00 0.00 83 1028.7
20190218160702 19 339 7.0 10.0 0.00 0.00 0.00 83 1028.6
20190218160202 19 336 7.0 10.0 0.00 0.00 0.00 83 1028.5
20190218154702 19 339 7.0 12.0 0.00 0.00 0.00 83 1028.0
20190218154202 19 341 8.0 12.0 0.00 0.00 0.00 83 1027.9
20190218153702 19 338 7.0 9.0 0.00 0.00 0.00 83 1027.9
20190218153202 19 333 6.0 10.0 0.00 0.00 0.00 83 1027.8
20190218151702 19 338 6.0 10.0 0.00 0.00 0.00 84 1027.5
20190218151202 19 338 6.0 9.0 0.00 0.00 0.00 84 1027.5
20190218150703 19 330 5.0 10.0 0.00 0.00 0.00 84 1027.3
20190218150202 19 335 5.0 9.0 0.00 0.00 0.00 85 1027.2
20190218144703 19 337 8.0 9.0 0.00 0.00 0.00 85 1026.7
20190218144202 19 340 6.0 10.0 0.00 0.00 0.00 85 1026.6
20190218143702 19 344 6.0 9.0 0.00 0.00 0.00 85 1026.4
20190218143202 19 340 7.0 9.0 0.00 0.00 0.00 85 1026.4
20190218141703 19 340 7.0 9.0 0.00 0.00 0.00 85 1026.1
20190218141202 19 342 6.0 10.0 0.00 0.00 0.00 86 1026.0
20190218140702 19 338 7.0 10.0 0.00 0.00 0.00 86 1025.8
20190218140202 19 337 7.0 10.0 0.00 0.00 0.00 86 1025.7
20190218134702 18 333 6.0 9.0 0.00 0.00 0.00 86 1025.4
20190218134202 18 335 6.0 8.0 0.00 0.00 0.00 87 1025.2
20190218133703 18 338 3.0 6.0 0.00 0.00 0.00 86 1025.1
20190218133202 17 338 1.0 3.0 0.00 0.00 0.00 86 1025.0
20190218131702 17 327 0.0 0.0 0.00 0.00 0.00 86 1024.6
20190218131202 17 325 0.0 0.0 0.00 0.00 0.00 87 1024.5
20190218130702 17 321 0.0 0.0 0.00 0.00 0.00 86 1024.4
20190218130202 17 321 0.0 0.0 0.00 0.00 0.00 87 1024.3
20190218124702 17 328 0.0 0.0 0.00 0.00 0.00 86 1023.8
20190218124202 17 329 0.0 0.0 0.00 0.00 0.00 86 1023.7
20190218123703 17 323 0.0 0.0 0.00 0.00 0.00 86 1023.6
20190218123202 17 324 0.0 0.0 0.00 0.00 0.00 86 1023.4
20190218121702 16 340 2.0 7.0 0.00 0.00 0.00 86 1022.9
20190218121202 16 330 4.0 7.0 0.00 0.00 0.00 86 1022.8
20190218120702 16 336 5.0 7.0 0.00 0.00 0.00 85 1022.7
20190218120203 16 334 5.0 8.0 0.00 0.00 0.00 85 1022.5
20190218114702 17 334 6.0 7.0 0.00 0.00 0.00 85 1022.2
20190218114203 17 334 5.0 7.0 0.00 0.00 0.00 86 1022.0
20190218113702 17 338 6.0 8.0 0.00 0.00 0.00 86 1022.0
20190218113202 17 343 4.0 9.0 0.00 0.00 0.00 85 1021.9
20190218111703 18 339 6.0 8.0 0.00 0.00 0.00 86 1021.7
20190218111203 19 340 6.0 9.0 0.00 0.00 0.00 86 1021.7
20190218110703 19 337 6.0 10.0 0.00 0.00 0.00 86 1021.6
20190218110202 19 340 7.0 10.0 0.00 0.00 0.00 86 1021.5
20190218104702 19 336 7.0 12.0 0.00 0.00 0.00 86 1021.2
20190218104203 19 339 6.0 10.0 0.00 0.00 0.00 86 1021.1
20190218103702 19 335 7.0 9.0 0.00 0.00 0.00 86 1020.9
20190218103202 19 341 6.0 12.0 0.00 0.00 0.00 86 1020.8
20190218101702 19 334 1.0 10.0 0.00 0.00 0.00 86 1020.8
20190218101202 19 336 7.0 12.0 0.00 0.00 0.00 86 1020.5
20190218100703 19 340 8.0 10.0 0.00 0.00 0.00 86 1020.4
20190218100202 19 338 8.0 12.0 0.00 0.00 0.00 86 1020.2
20190218094702 19 342 7.0 12.0 0.00 0.00 0.00 86 1020.0
20190218094203 19 340 7.0 9.0 0.00 0.00 0.00 86 1019.9
20190218093702 19 341 7.0 12.0 0.00 0.00 0.00 86 1019.9
20190218093202 19 337 7.0 12.0 0.00 0.00 0.00 86 1019.8
20190218091702 19 340 7.0 12.0 0.00 0.00 0.00 86 1019.8
20190218091203 19 339 7.0 12.0 0.00 0.00 0.00 86 1019.8
20190218090702 19 340 8.0 12.0 0.00 0.00 0.00 86 1019.8
20190218090202 19 341 7.0 12.0 0.00 0.00 0.00 86 1019.7
20190218084702 19 339 8.0 12.0 0.00 0.00 0.00 86 1019.5
20190218084202 19 339 8.0 10.0 0.00 0.00 0.00 86 1019.5
20190218083702 19 343 7.0 10.0 0.00 0.00 0.00 86 1019.4
20190218083202 19 335 9.0 12.0 0.00 0.00 0.00 86 1019.3
20190218081702 19 335 7.0 12.0 0.00 0.00 0.00 86 1019.1
20190218081202 19 339 7.0 10.0 0.00 0.00 0.00 86 1019.0
20190218080702 19 340 8.0 12.0 0.00 0.00 0.00 86 1018.9
20190218080203 19 335 5.0 10.0 0.00 0.00 0.00 86 1018.9
20190218074702 19 339 7.0 9.0 0.00 0.00 0.00 86 1018.9
20190218074202 19 338 6.0 9.0 0.00 0.00 0.00 86 1018.7
20190218073702 19 341 7.0 9.0 0.00 0.00 0.00 86 1018.6
20190218073203 19 339 6.0 10.0 0.00 0.00 0.00 85 1018.6
20190218071702 19 342 9.0 12.0 0.00 0.00 0.00 85 1018.3
20190218071202 19 343 8.0 10.0 0.00 0.00 0.00 85 1018.3
20190218070703 19 345 9.0 13.0 0.00 0.00 0.00 86 1018.3
20190218070202 19 342 9.0 13.0 0.00 0.00 0.00 86 1018.1
20190218064702 20 340 10.0 14.0 0.00 0.00 0.00 86 1018.0
20190218064203 20 344 9.0 13.0 0.00 0.00 0.00 86 1017.8
20190218063703 20 343 9.0 12.0 0.00 0.00 0.00 86 1017.7
20190218063202 20 340 9.0 13.0 0.00 0.00 0.00 86 1017.6
20190218061702 20 338 9.0 13.0 0.00 0.00 0.00 86 1017.5
20190218061202 21 342 9.0 12.0 0.00 0.00 0.00 86 1017.4
20190218060702 21 343 9.0 12.0 0.00 0.00 0.00 86 1017.3
20190218060202 21 343 10.0 17.0 0.00 0.00 0.00 86 1017.1
20190218054702 21 345 11.0 14.0 0.00 0.00 0.00 86 1016.8
20190218054203 21 346 10.0 15.0 0.00 0.00 0.00 86 1016.8
20190218053702 21 347 13.0 20.0 0.00 0.00 0.00 86 1016.7
20190218053202 21 345 13.0 18.0 0.00 0.00 0.00 86 1016.6
20190218051703 22 348 14.0 18.0 0.00 0.00 0.00 87 1016.4
20190218051202 22 347 14.0 20.0 0.00 0.00 0.00 87 1016.4
20190218050702 22 352 13.0 17.0 0.00 0.00 0.00 87 1016.3
20190218050203 22 348 15.0 20.0 0.00 0.00 0.00 87 1016.1
20190218044702 23 350 12.0 16.0 0.00 0.00 0.00 87 1016.1
20190218044202 23 347 12.0 16.0 0.00 0.00 0.00 87 1016.0
20190218043702 23 346 10.0 14.0 0.00 0.00 0.00 87 1015.9
20190218043202 23 350 11.0 17.0 0.00 0.00 0.00 87 1015.8
20190218041702 23 347 14.0 17.0 0.00 0.00 0.00 87 1015.6
20190218041202 23 348 12.0 16.0 0.00 0.00 0.00 87 1015.7
20190218040702 23 345 11.0 15.0 0.00 0.00 0.00 87 1015.6
20190218040202 23 352 14.0 18.0 0.00 0.00 0.00 87 1015.5
20190218034703 24 348 12.0 14.0 0.00 0.00 0.00 88 1015.3
20190218034202 24 346 10.0 15.0 0.00 0.00 0.00 88 1015.3
20190218033702 24 349 12.0 15.0 0.00 0.00 0.00 88 1015.3
20190218033202 24 349 12.0 15.0 0.00 0.00 0.00 88 1015.2
20190218031703 24 346 12.0 15.0 0.00 0.00 0.00 88 1015.0
20190218031202 24 348 12.0 15.0 0.00 0.00 0.00 88 1014.9
20190218030703 24 346 12.0 16.0 0.00 0.00 0.00 88 1014.8
20190218030202 24 342 13.0 17.0 0.00 0.00 0.00 88 1014.7
20190218024702 24 347 9.0 13.0 0.00 0.00 0.00 88 1014.3
20190218024203 25 8 8.0 12.0 0.00 0.00 0.00 88 1014.3
20190218023702 25 9 7.0 12.0 0.00 0.00 0.00 88 1014.2
20190218023202 25 5 8.0 13.0 0.00 0.00 0.00 88 1014.1
20190218021702 25 8 8.0 15.0 0.00 0.00 0.00 88 1013.9
20190218021202 25 14 7.0 12.0 0.00 0.00 0.00 88 1013.9
20190218020702 25 359 8.0 13.0 0.00 0.00 0.00 88 1013.8
20190218020202 25 354 7.0 13.0 0.00 0.00 0.00 88 1013.8
20190218014702 26 4 9.0 12.0 0.00 0.00 0.00 88 1013.6
20190218014202 26 6 8.0 12.0 0.00 0.00 0.00 88 1013.6
20190218013702 26 1 7.0 10.0 0.00 0.00 0.00 88 1013.6
20190218013202 26 358 6.0 12.0 0.00 0.00 0.00 88 1013.6
20190218011702 26 10 8.0 12.0 0.00 0.00 0.00 88 1013.5
20190218011202 26 10 8.0 12.0 0.00 0.00 0.00 88 1013.4
20190218010702 26 7 6.0 8.0 0.00 0.00 0.00 88 1013.5
20190218010202 27 7 6.0 12.0 0.00 0.00 0.00 88 1013.5
20190218004702 27 4 6.0 9.0 0.00 0.00 0.00 88 1013.3
20190218004203 27 7 5.0 8.0 0.00 0.00 0.00 88 1013.3
20190218003703 27 349 4.0 6.0 0.00 0.00 0.00 88 1013.2
20190218003202 27 355 0.0 6.0 0.00 0.00 0.00 88 1013.2
20190218001702 27 346 0.0 0.0 0.00 0.00 0.00 88 1012.9
20190218001203 27 354 0.0 0.0 0.00 0.00 0.00 88 1012.8
20190218000703 27 355 0.0 0.0 0.00 0.00 0.00 88 1012.7
20190218000203 27 355 0.0 0.0 0.00 0.00 0.00 88 1012.7
20190217234702 27 355 0.0 0.0 0.00 0.00 0.00 88 1012.3
20190217234202 27 0 0.0 0.0 0.00 0.00 0.00 88 1012.2
20190217233703 27 8 0.0 0.0 0.00 0.00 0.00 88 1012.2
20190217233202 27 5 0.0 0.0 0.00 0.00 0.00 88 1012.1
20190217231703 27 16 0.0 0.0 0.00 0.00 0.00 87 1011.9
20190217231202 27 17 0.0 0.0 0.00 0.00 0.00 87 1011.8
20190217230703 27 17 0.0 0.0 0.00 0.00 0.00 87 1011.6
20190217230202 27 17 0.0 0.0 0.00 0.00 0.00 87 1011.5
20190217224702 27 17 0.0 0.0 0.00 0.00 0.00 87 1011.4
20190217224202 27 17 0.0 0.0 0.00 0.00 0.00 87 1011.3
20190217223702 27 18 0.0 0.0 0.00 0.00 0.00 87 1011.2
20190217223202 27 13 0.0 0.0 0.00 0.00 0.00 87 1011.2
20190217221702 27 5 0.0 0.0 0.00 0.00 0.00 87 1011.1
20190217221203 27 19 0.0 0.0 0.00 0.00 0.00 87 1011.0
20190217220702 27 24 0.0 0.0 0.00 0.00 0.00 87 1010.9
20190217220202 27 24 0.0 0.0 0.00 0.00 0.00 87 1010.9
20190217214702 28 27 0.0 0.0 0.00 0.00 0.00 87 1011.0
20190217214202 27 17 0.0 0.0 0.00 0.00 0.00 87 1010.9
20190217213702 27 17 0.0 0.0 0.00 0.00 0.00 87 1011.0
20190217213203 27 16 0.0 6.0 0.00 0.00 0.00 87 1010.9
20190217211702 27 11 0.0 0.0 0.00 0.00 0.00 87 1010.8
20190217211202 27 15 0.0 0.0 0.00 0.00 0.00 87 1010.7
20190217210703 27 14 0.0 0.0 0.00 0.00 0.00 87 1010.7
20190217210202 27 13 0.0 0.0 0.00 0.00 0.00 87 1010.7
20190217204703 27 28 0.0 0.0 0.00 0.00 0.00 87 1010.5
20190217204202 27 29 0.0 0.0 0.00 0.00 0.00 87 1010.5
20190217203702 27 30 0.0 0.0 0.00 0.00 0.00 87 1010.5
20190217203203 27 31 1.0 6.0 0.00 0.00 0.00 87 1010.4
20190217201702 27 15 2.0 8.0 0.00 0.00 0.00 87 1010.2
20190217201203 27 21 4.0 6.0 0.00 0.00 0.00 87 1010.2
20190217200703 27 42 4.0 8.0 0.00 0.00 0.00 87 1010.2
20190217200202 27 28 3.0 8.0 0.00 0.00 0.00 87 1010.3
20190217194703 27 45 2.0 6.0 0.00 0.00 0.00 87 1010.5
20190217194202 27 23 5.0 7.0 0.00 0.00 0.00 87 1010.5
20190217193703 27 35 2.0 8.0 0.00 0.00 0.00 87 1010.5
20190217193202 27 42 1.0 8.0 0.00 0.00 0.00 87 1010.6
20190217191703 27 26 3.0 5.0 0.00 0.00 0.00 87 1010.8
20190217191202 27 41 2.0 7.0 0.00 0.00 0.00 87 1010.8
20190217190702 27 51 3.0 6.0 0.00 0.00 0.00 87 1010.9
20190217190203 27 31 2.0 7.0 0.00 0.00 0.00 87 1010.9
20190217184702 26 30 4.0 9.0 0.00 0.00 0.00 86 1010.9
20190217184202 27 12 1.0 5.0 0.00 0.00 0.00 86 1011.0
20190217183702 27 42 2.0 7.0 0.00 0.00 0.00 86 1011.1
20190217183203 27 58 3.0 10.0 0.00 0.00 0.00 85 1011.2
20190217181702 27 62 6.0 9.0 0.00 0.00 0.00 85 1011.1
20190217181202 27 58 6.0 9.0 0.00 0.00 0.00 85 1011.2
20190217180702 27 65 5.0 10.0 0.00 0.00 0.00 85 1011.2